Tracking 19281 objects as of 16-Nov-2018
HD Live streaming from Space Station
objects crossing your sky now

COSMOS 951

Track COSMOS 951 now!
10-day predictions
COSMOS 951 is classified as:


NORAD ID: 10352
Int'l Code: 1977-087A
Perigee: 966.7 km
Apogee: 1,017.3 km
Inclination: 83.0 °
Period: 104.8 minutes
Semi major axis: 7363 km
RCS: 4.4489 m2 (large)
Launch date: September 13, 1977
Source: Commonwealth of Independent States (former USSR) (CIS)
Launch site: PLESETSK MISSILE AND SPACE COMPLEX (PKMTR)
aabbcc
Your satellite tracking list
Your tracking list is empty




NASA's NSSDC Master Catalog

Two Line Element Set (TLE):
1 10352U 77087A   18319.78879064  .00000036  00000-0  21665-4 0  9994
2 10352  82.9721  53.9983 0034328 173.3378 303.4740 13.74104813 64273
Source of the keplerian elements: AFSPC